Weather History for SKRG - February, 2013

Change the Weather History Date:

Sunday, February 17, 2013

  Actual Average Record
Temperature  
Mean Temperature 60 °F -  
Max Temperature 64 °F 69 °F 77 °F (1998)
Min Temperature 55 °F 54 °F 46 °F (1998)
Degree Days  
Heating Degree Days 6    
Growing Degree Days 10 (Base 50)    
Moisture  
Dew Point 56 °F    
Average Humidity 88    
Maximum Humidity 100    
Minimum Humidity 60    
Precipitation  
Precipitation 0.20 in - - ()
Sea Level Pressure  
Sea Level Pressure 30.25 in    
Wind  
Wind Speed 3 mph ()    
Max Wind Speed 12 mph    
Max Gust Speed -    
Visibility 4.4 miles    
Events Fog , Rain    
Averages and records for this station are not official NWS values.
T = Trace of Precipitation, MM = Missing Value Source: Averaged Metar Reports

Daily Weather History Graph

Daily Weather History Graph

Search for Another Location

Airport or City:

Trip Planner

Search our weather history database for the weather conditions in past years. The results will help you decide how hot, cold, wet, or windy it might be!

Date:

Astronomy

Feb. 17, 2013 Rise Set
Actual Time 6:17 AM COT 6:13 PM COT
Civil Twilight 5:56 AM COT 6:35 PM COT
Nautical Twilight 5:31 AM COT 6:59 PM COT
Astronomical Twilight 5:07 AM COT 7:24 PM COT
Moon 11:43 AM COT (2/17) No Moon Set
Length of Visible Light 12h 38m
Length of Day
11h 56m
Waxing Crescent, 49% of the Moon is Illuminated
Feb 17
Waxing Crescent
Feb 17
First Quarter
Feb 25
Full
Mar 4
Last Quarter
Mar 11
New

Hourly Weather History & Observations

Time (COT) Temp. Dew Point Humidity Pressure Visibility Wind Dir Wind Speed Gust Speed Precip Events Conditions
12:00 AM 60.8 °F 59.0 °F 94% 30.27 in 3.7 mi Variable 2.3 mph - N/A Fog Fog
1:00 AM 60 °F 58 °F 92%  in 2 mi NNE 4.5 mph - - Rain Light Drizzle
1:00 AM 60.8 °F 59.0 °F 94% 30.26 in 2.5 mi NNE 4.6 mph - N/A Fog Light Drizzle
2:00 AM 59.0 °F 57.2 °F 94% 30.24 in 2.5 mi SSE 4.6 mph - N/A   Drizzle
3:00 AM 59.0 °F 57.2 °F 94% 30.22 in 2.2 mi Variable 2.3 mph - N/A Fog Patches of Fog
4:00 AM 59 °F 57 °F 92%  in 1 mi Calm Calm - - Rain Light Rain
4:00 AM 59.0 °F 57.2 °F 94% 30.20 in 1.2 mi Calm Calm - N/A Fog Patches of Fog
5:00 AM 57.2 °F 57.2 °F 100% 30.21 in 1.2 mi Variable 2.3 mph - N/A Fog Patches of Fog
5:30 AM 57.2 °F 55.4 °F 94% 30.21 in 1.9 mi WNW 4.6 mph - N/A Fog Patches of Fog
6:00 AM 57.2 °F 55.4 °F 94% 30.22 in 1.9 mi North 4.6 mph - N/A Fog Patches of Fog
7:00 AM 56 °F 55 °F 95%  in 4 mi East 4.5 mph - - Rain Light Drizzle
7:00 AM 55.4 °F 55.4 °F 100% 30.24 in 4.3 mi SSE 4.6 mph - N/A Fog Light Drizzle
7:05 AM 55.4 °F 55.4 °F 100% 30.25 in 1.9 mi Calm Calm - N/A Fog Light Drizzle
7:30 AM 55.4 °F 55.4 °F 100% 30.26 in 2.5 mi Calm Calm - N/A Fog Light Drizzle
8:00 AM 57.2 °F 55.4 °F 94% 30.27 in 2.5 mi Calm Calm - N/A Fog Light Drizzle
8:35 AM 57.2 °F 55.4 °F 94% 30.29 in 3.1 mi Calm Calm - N/A Fog Light Drizzle
9:00 AM 59.0 °F 55.4 °F 88% 30.31 in 4.3 mi Calm Calm - N/A   Light Drizzle
10:00 AM 59 °F 56 °F 87%  in 5 mi Calm Calm - - Rain Light Drizzle
10:00 AM 59.0 °F 55.4 °F 88% 30.32 in 5.0 mi Calm Calm - N/A   Light Drizzle
11:00 AM 60.8 °F 57.2 °F 88% 30.32 in 5.6 mi Calm Calm - N/A   Light Drizzle
11:05 AM 60.8 °F 57.2 °F 88% 30.32 in 2.5 mi Calm Calm - N/A   Light Drizzle
12:00 PM 59.0 °F 57.2 °F 94% 30.31 in 5.0 mi Calm Calm - N/A   Light Drizzle
1:00 PM 62 °F 57 °F 77%  in 11 mi East 6.7 mph - -   Haze
1:00 PM 62.6 °F 57.2 °F 82% 30.26 in 6.2 mi East 5.8 mph - N/A   Mostly Cloudy
2:00 PM 64.4 °F 55.4 °F 73% 30.24 in 6.2 mi ENE 8.1 mph - N/A   Mostly Cloudy
3:00 PM 62.6 °F 55.4 °F 77% 30.21 in 6.2 mi NNE 8.1 mph - N/A   Overcast
4:00 PM 63 °F 53 °F 60%  in 11 mi NNE 11.2 mph - -   Haze
4:00 PM 62.6 °F 53.6 °F 72% 30.19 in 6.2 mi NNE 11.5 mph - N/A   Overcast
5:00 PM 62.6 °F 53.6 °F 72% 30.18 in 6.2 mi ENE 5.8 mph - N/A   Overcast
6:00 PM 62.6 °F 53.6 °F 72% 30.19 in 6.2 mi NE 5.8 mph - N/A   Mostly Cloudy
7:00 PM 61 °F 55 °F 75%  in 6 mi Calm Calm - -   Haze
7:00 PM 60.8 °F 55.4 °F 82% 30.22 in 5.6 mi Calm Calm - N/A   Mostly Cloudy
8:00 PM 59.0 °F 55.4 °F 88% 30.26 in 5.6 mi Calm Calm - N/A   Scattered Clouds
9:00 PM 59.0 °F 57.2 °F 94% 30.28 in 5.6 mi Calm Calm - N/A   Scattered Clouds
10:00 PM 58 °F 56 °F 89%  in 5 mi Calm Calm - - Fog Light Fog
10:00 PM 57.2 °F 55.4 °F 94% 30.29 in 5.0 mi Calm Calm - N/A Fog Fog
11:00 PM 57.2 °F 55.4 °F 94% 30.31 in 4.3 mi Calm Calm - N/A Fog Fog